SCP
-0 -0 -0 0 0 0 -0 -0 -0 -0 -0 0 0 0 0 0 0 0 0 0 0 0 0 0 0 0 0 0 0 0 0 0 0 0 0 0 0 0 0 0 0 0 0 0 0
0 0 0 0 0 0 0 -0 -0 -0 0 0 0 0 0 0 0 0 0 0 0 0 0 0 0 0 0 0 0 0 0 0 0 0 0 0 0 0 0 0 0 0 0 0 0
0 0 0 0 0 0 0 0 0 0 0 0 0 0 0 0 0 0 0 0 0 0 0 0 0 0 0 0 0 0 0 0 0 0 0 0 0 0 0 0 0 0 0 0 0
0 0 0 0 0 0 0 0 0 0 0 0 0 0 0 0 0 0 0 0 0 0 0 0 0 0 0 0 0 -0 -0 0 0 0 0 0 0 0 0 0 0 0 0 0 0
0 0 0 0 0 0 0 0 0 0 0 0 0 0 0 0 0 0 0 0 0 0 0 0 0 0 0 0 0 -0 0 0 0 0 0 0 0 0 0 0 0 0 0 0 0
0 0 0 0 0 0 0 0 0 0 0 0 0 0 0 0 0 0 0 0 0 0 0 0 0 0 -0 -0 -0 0 0 0 0 0 0 0 0 0 0 0 0 0 0 0 0
0 0 0 0 0 0 0 0 0 0 0 0 0 0 0 0 0 0 0 0 0 0 0 0 0 -0 0 0 0 0 0 0 0 0 0 0 0 0 0 0 0 0 0 0 0
0 0 0 0 0 0 0 0 0 0 0 0 0 0 0 0 0 0 0 0 0 0 0 0 -0 -0 -0 0 0 0 0 0 0 0 0 0 0 0 0 0 0 0 0 0 0
0 0 0 0 0 0 0 0 0 0 0 0 0 0 0 0 0 0 0 0 0 0 0 0 -0 -0 -0 0 0 -0 0 0 0 0 0 0 0 0 0 0 0 0 0 0 0
0 0 0 0 0 0 0 0 0 0 0 0 0 0 0 0 0 0 0 0 0 0 0 -0 -0 -0 -0 -0 0 0 0 0 0 -0 0 0 0 0 0 0 0 0 0 0 0
0 0 0 0 0 0 0 0 0 0 0 0 0 0 0 0 0 0 0 0 0 0 0 0 0 0 0 0 0 0 -0 -0 -0 -0 -0 -0 0 0 0 0 0 0 0 0 0
0 0 0 0 -0 -0 0 0 0 0 0 0 0 0 0 0 0 0 0 0 0 0 0 0 0 0 0 0 0 0 0 0 -0 -0 -0 0 0 0 0 0 0 0 0 0 0
0 0 0 0 0 -0 -0 0 0 0 0 0 0 0 0 0 0 0 0 0 0 0 0 0 0 0 0 0 0 -0 -0 -0 0 -0 0 0 0 0 0 0 0 0 0 0 0
0 0 0 0 0 0 0 0 0 0 0 0 0 0 0 0 0 0 0 0 0 0 0 0 0 0 -0 -0 -0 0 0 0 0 -0 0 0 0 0 0 0 0 0 0 0 0
0 0 0 -0 0 0 0 0 0 0 0 0 0 0 0 0 0 0 0 0 0 0 0 0 -0 -0 -0 -0 -0 0 0 0 0 0 0 0 0 0 0 0 0 0 0 0 0
0 0 0 0 0 0 0 0 0 0 0 0 0 0 0 0 0 0 0 0 0 0 0 0 0 0 0 0 0 0 0 0 0 0 0 0 0 0 0 0 0 0 0 0 0
0 0 -0 0 0 0 0 0 0 0 0 0 0 0 0 0 0 0 0 0 0 0 0 0 0 0 0 0 0 0 0 -0 0 0 0 0 0 0 0 0 0 0 0 0 0
-0 0 0 -0 0 0 0 0 0 0 0 0 0 0 0 0 0 0 0 0 0 0 0 0 0 0 0 0 0 0 0 0 0 0 0 0 0 0 0 0 0 0 0 0 0
0 0 0 0 0 0 0 0 0 0 0 0 0 0 0 0 0 0 0 0 0 0 0 0 0 0 0 0 0 0 0 0 0 0 0 0 0 0 0 0 0 0 0 0 0
0 0 0 0 0 0 0 0 0 0 0 0 0 0 0 0 0 0 0 0 0 0 0 0 0 0 0 0 0 0 0 0 0 0 0 0 0 0 0 0 0 0 0 0 0
0 0 0 0 0 0 0 0 0 0 0 0 0 0 0 0 0 0 0 0 0 0 0 0 0 0 0 0 0 0 0 0 0 0 0 0 0 0 0 0 0 0 0 0 0
0 0 0 0 0 0 0 0 0 0 0 0 0 0 0 0 0 0 0 0 0 0 0 0 0 0 0 0 0 0 0 0 0 0 0 0 0 0 0 0 0 0 0 0 0
0 0 0 0 0 0 0 0 0 0 0 0 0 0 0 0 0 0 0 0 0 0 0 0 0 0 0 0 0 0 0 0 0 0 0 0 0 0 0 0 0 0 0 0 0
0 0 0 0 0 0 0 0 0 0 0 0 0 0 0 0 0 0 0 0 0 0 0 0 0 0 0 0 0 0 0 0 0 0 0 0 0 0 0 0 0 0 0 0 0
0 0 0 0 0 0 0 0 0 0 0 0 0 0 0 0 0 0 0 0 0 0 0 0 0 0 0 0 0 0 0 0 0 0 0 0 0 0 0 0 0 0 0 0 0
0 0 0 0 0 0 0 0 0 0 0 0 0 0 0 0 0 0 0 0 0 0 0 0 0 0 0 0 0 0 0 0 0 0 0 0 0 0 0 0 0 0 0 0 0
0 0 0 0 0 0 0 0 0 0 0 0 0 0 0 0 0 0 0 0 0 0 0 0 0 0 0 0 0 0 0 0 0 0 0 0 0 0 0 0 0 0 0 0 0
Wind_Speed_500mb
26 25 27 30 28 26 25 23 19 14 12 7 9 12 18 38 21 7 22 24 19 18 17 14 15 21 18 17 16 6 9 5 4 6 4 12 3 8 11 15 21 14 12 10 13
27 27 29 29 28 28 27 23 21 16 12 6 4 3 10 18 32 37 24 16 15 15 16 18 17 14 13 11 13 14 9 4 2 1 3 8 11 10 5 10 13 19 18 13 9
29 30 29 30 30 30 28 25 22 20 17 10 9 3 2 2 19 31 21 18 16 15 15 19 24 25 18 17 16 9 8 7 4 8 8 10 12 11 6 10 12 6 9 11 12
30 30 31 30 30 31 31 26 26 23 19 14 13 20 7 2 9 25 22 19 14 15 13 14 10 10 11 10 8 13 13 7 8 14 9 9 8 11 20 8 11 10 13 12 13
32 31 30 30 30 30 34 29 28 28 26 20 23 17 22 40 27 25 24 21 14 14 21 25 25 13 10 9 13 13 5 16 15 14 30 9 14 8 21 12 11 16 17 18 18
33 30 29 30 30 30 28 30 31 29 29 43 32 25 40 49 32 27 24 22 26 21 23 24 29 31 24 12 12 13 27 22 23 19 25 10 15 8 27 13 11 19 24 24 19
38 33 29 32 31 27 22 23 24 25 30 31 28 49 70 36 34 25 24 30 33 31 32 25 14 12 12 11 12 10 9 10 37 33 11 6 12 11 39 6 21 27 30 25 22
39 37 31 30 29 22 24 26 24 23 21 18 15 40 31 39 32 19 26 29 27 28 30 28 32 40 18 16 13 11 10 8 11 38 11 10 5 19 28 18 34 34 24 20 19
32 34 35 28 25 25 24 17 19 29 39 30 15 21 16 30 39 31 25 22 23 26 25 22 33 23 14 8 10 16 4 6 4 18 8 13 1 19 16 35 42 36 30 27 25
29 28 32 37 22 17 34 52 46 1 5 15 32 15 34 34 40 26 20 16 11 8 11 17 21 11 11 13 2 4 5 5 4 13 12 8 3 12 21 31 33 33 31 28 23
26 24 23 23 26 35 9 7 12 24 69 42 26 20 38 17 38 38 13 10 16 23 13 23 22 11 13 9 7 5 3 7 5 9 9 6 3 8 16 25 27 26 25 23 21
26 23 23 20 25 24 17 36 34 19 23 36 47 39 37 35 23 41 36 18 24 11 12 15 13 13 5 12 15 15 6 10 10 10 9 4 5 3 8 7 12 18 19 18 16
27 27 26 19 15 14 20 20 14 8 10 22 33 37 31 25 27 43 33 15 20 17 17 15 6 10 7 12 10 4 6 3 11 15 2 7 10 10 5 17 15 15 16 14 14
26 28 28 25 10 18 16 12 7 3 11 25 23 23 33 5 13 34 28 9 15 6 7 12 11 7 8 9 4 3 4 4 8 7 4 8 9 11 10 10 8 12 13 12 10
26 27 29 24 17 14 9 7 5 3 13 21 17 21 23 17 10 32 28 21 10 7 5 2 11 11 13 6 4 4 2 6 4 5 6 8 6 10 11 13 15 19 13 8 6
26 24 25 28 23 18 7 2 2 13 3 14 17 23 14 26 16 21 14 16 9 8 15 6 3 5 3 6 6 7 3 7 6 6 5 8 7 10 12 11 9 22 18 11 6
27 26 24 31 26 22 9 1 11 14 6 13 8 12 3 13 16 23 12 17 10 10 12 10 4 5 8 5 2 11 11 8 12 10 9 2 2 19 5 3 13 32 28 18 12
23 23 24 36 33 23 6 10 18 6 10 1 3 4 10 14 8 15 5 9 12 9 7 8 13 8 14 7 2 9 8 9 9 6 11 3 12 10 1 4 13 24 24 22 18
23 19 21 35 36 23 3 13 14 11 2 4 4 10 10 6 2 9 9 2 1 7 9 6 9 1 3 2 3 1 7 4 11 4 6 6 15 6 3 4 12 22 25 26 22
24 14 20 32 27 17 13 4 3 4 6 4 4 4 3 11 10 10 6 1 3 7 3 3 9 2 4 2 7 6 6 7 6 6 12 11 12 13 11 19 16 27 36 28 26
20 7 25 31 16 11 8 9 6 2 3 6 3 3 1 3 4 5 6 2 4 4 6 7 7 8 4 6 11 3 3 7 5 7 9 8 12 12 13 15 24 47 32 25 25
13 5 24 21 8 12 5 9 5 3 2 1 2 4 5 4 3 3 4 10 4 4 2 1 6 8 18 7 7 8 12 12 8 11 8 4 18 3 12 19 27 34 25 23 27
12 10 20 16 7 4 1 2 2 6 4 4 3 1 4 8 5 6 7 8 10 9 10 10 3 7 19 6 5 9 10 7 5 4 14 6 14 1 8 14 26 31 26 26 31
11 7 13 19 16 13 8 2 2 4 3 4 4 5 5 3 2 8 7 6 8 7 6 6 6 15 14 16 6 6 10 11 11 6 6 24 38 32 15 17 34 40 30 26 30
14 6 5 4 10 9 5 10 6 5 6 7 4 9 10 2 3 8 5 4 5 7 7 5 10 4 12 18 7 19 25 16 21 20 16 42 15 40 9 14 23 19 24 25 35
7 3 3 5 3 1 3 10 11 6 11 6 6 5 11 9 13 12 10 8 10 6 10 2 8 3 12 9 10 16 38 22 37 31 18 40 46 35 27 14 10 13 18 32 27
3 2 4 1 3 5 6 8 9 7 10 6 13 8 8 17 28 22 17 10 4 14 13 8 7 6 12 11 16 15 22 26 11 9 13 14 21 3 3 10 16 16 27 31 30
Wind_Direction_500mb
21 15 16 12 12 20 19 21 35 54 103 124 117 47 70 68 75 122 71 41 51 80 91 90 99 115 101 70 50 43 64 86 146 143 204 351 48 49 59 78 58 53 81 103 147
21 18 17 21 26 25 22 31 39 64 80 123 248 30 74 74 69 72 57 55 58 85 95 114 117 113 75 46 33 60 78 136 239 334 346 356 52 11 48 48 65 71 89 102 106
27 23 28 28 28 27 32 44 58 69 71 79 79 17 198 357 48 27 48 56 75 86 104 111 104 92 68 47 21 39 109 162 40 16 4 354 34 43 58 34 38 35 122 92 101
35 35 27 31 34 39 50 55 68 59 61 63 47 48 88 124 65 17 43 46 71 75 104 117 109 65 65 57 28 91 57 70 40 28 29 19 6 55 52 65 31 58 79 87 90
35 35 40 41 47 56 53 62 65 62 51 49 51 68 91 79 29 35 47 51 69 91 94 90 75 76 82 84 61 69 90 64 49 60 35 57 61 55 51 31 61 86 79 89 94
35 39 43 49 53 56 60 70 74 68 57 66 68 78 80 69 32 37 56 63 76 78 71 85 85 90 77 52 58 93 88 66 34 32 32 67 35 77 350 5 102 95 96 97 91
46 44 45 56 53 57 61 56 68 66 67 71 65 69 60 50 42 44 60 67 68 73 76 69 66 93 92 82 84 82 72 44 19 356 33 44 28 4 347 110 127 117 108 100 80
53 51 48 31 37 51 62 68 66 69 62 53 63 59 67 46 46 67 70 70 70 71 76 80 83 77 63 101 38 44 50 39 349 15 359 25 232 338 15 121 123 125 121 113 92
44 49 44 38 36 57 63 65 81 78 66 59 64 59 39 39 52 52 58 65 68 68 67 80 76 59 43 55 26 13 94 17 302 26 294 28 337 346 39 133 129 129 121 104 86
37 41 46 53 53 52 75 71 65 334 48 31 43 75 25 15 32 36 54 62 71 58 58 55 58 64 24 37 154 346 20 329 282 344 14 27 89 355 54 112 107 103 95 88 73
25 24 30 38 35 35 2 324 32 43 60 60 44 69 27 26 41 31 40 47 56 55 38 30 59 26 328 321 332 301 50 328 352 22 355 18 65 358 34 76 84 94 99 89 77
26 16 359 355 7 15 34 72 72 99 66 52 48 47 31 28 34 37 51 60 47 42 349 37 57 338 308 10 47 26 14 348 292 9 26 330 257 1 53 67 103 113 104 94 89
23 18 9 358 11 17 52 77 89 105 75 25 28 24 15 29 41 15 26 42 50 49 27 92 285 335 85 37 62 57 110 294 228 334 37 330 282 194 128 122 110 99 103 101 81
16 18 19 17 16 17 39 54 64 97 74 333 358 21 2 48 53 20 25 55 45 137 82 83 334 19 58 63 28 299 176 270 286 26 259 14 278 230 185 176 173 159 150 135 122
5 10 15 21 22 21 18 13 10 86 52 319 340 346 14 65 336 18 29 59 72 35 93 287 10 13 46 353 28 266 293 242 108 97 32 354 68 266 127 229 211 203 183 152 131
354 360 10 12 12 12 7 30 59 43 310 338 338 355 16 19 15 354 35 65 85 83 46 90 74 68 268 274 226 295 121 53 62 102 26 240 122 254 194 213 176 201 197 192 184
356 355 359 8 4 359 348 122 40 93 344 302 323 5 16 350 356 21 32 16 40 45 9 349 29 8 14 316 223 22 43 349 356 5 230 36 351 253 243 217 204 188 193 200 215
356 351 353 358 357 355 354 48 70 246 237 16 317 323 47 359 20 357 58 35 40 62 83 73 333 15 353 50 346 30 115 141 249 273 282 25 241 264 121 143 162 187 205 219 234
344 347 358 358 354 353 21 49 188 198 75 324 326 59 330 9 117 34 31 73 323 29 116 57 285 226 53 39 87 248 50 138 103 114 36 260 286 254 127 263 205 211 218 232 250
343 337 353 354 356 1 67 149 51 350 2 34 45 63 322 315 13 41 359 267 49 42 31 173 338 251 323 78 45 113 158 37 10 335 302 279 276 247 250 237 230 228 230 242 261
346 341 350 349 360 44 105 200 235 178 21 19 122 65 225 292 352 317 329 32 19 49 61 129 98 292 42 187 181 26 6 45 129 151 205 287 257 212 212 216 216 226 232 253 279
350 353 354 354 27 52 102 187 143 141 87 58 91 110 186 147 324 10 281 201 180 153 23 204 144 258 228 189 190 205 203 173 135 248 231 192 271 172 230 264 224 224 235 269 293
357 346 3 11 92 11 29 15 168 150 188 161 157 156 139 152 37 219 237 211 188 174 177 178 282 348 333 6 5 224 202 158 89 66 208 164 260 240 259 249 227 239 248 285 299
357 12 23 48 69 116 131 259 148 206 202 195 172 160 146 50 213 237 247 227 207 185 178 176 215 193 209 219 122 232 198 196 151 153 206 230 275 280 267 249 256 250 261 287 307
10 55 45 315 13 83 104 150 146 235 201 207 333 232 170 193 296 247 251 302 199 174 166 162 228 241 263 257 200 258 248 196 195 220 209 273 233 271 277 246 283 277 264 297 308
8 338 70 89 87 171 19 214 186 265 157 224 189 179 184 191 208 225 183 207 203 160 169 175 264 96 283 321 299 271 266 214 232 252 261 265 278 280 270 263 250 276 286 308 308
356 297 293 254 128 88 234 182 216 180 209 224 206 159 211 244 263 269 244 256 192 169 186 174 138 54 267 347 321 296 241 201 183 206 165 211 245 251 313 245 271 299 310 309 319
Wind_Speed_850mb
26 25 27 30 28 26 25 23 19 14 12 7 9 12 18 38 21 7 22 24 19 18 17 14 15 21 18 17 16 6 9 5 4 6 4 12 3 8 11 15 21 14 12 10 13
27 27 29 29 28 28 27 23 21 16 12 6 4 3 10 18 32 37 24 16 15 15 16 18 17 14 13 11 13 14 9 4 2 1 3 8 11 10 5 10 13 19 18 13 9
29 30 29 30 30 30 28 25 22 20 17 10 9 3 2 2 19 31 21 18 16 15 15 19 24 25 18 17 16 9 8 7 4 8 8 10 12 11 6 10 12 6 9 11 12
30 30 31 30 30 31 31 26 26 23 19 14 13 20 7 2 9 25 22 19 14 15 13 14 10 10 11 10 8 13 13 7 8 14 9 9 8 11 20 8 11 10 13 12 13
32 31 30 30 30 30 34 29 28 28 26 20 23 17 22 40 27 25 24 21 14 14 21 25 25 13 10 9 13 13 5 16 15 14 30 9 14 8 21 12 11 16 17 18 18
33 30 29 30 30 30 28 30 31 29 29 43 32 25 40 49 32 27 24 22 26 21 23 24 29 31 24 12 12 13 27 22 23 19 25 10 15 8 27 13 11 19 24 24 19
38 33 29 32 31 27 22 23 24 25 30 31 28 49 70 36 34 25 24 30 33 31 32 25 14 12 12 11 12 10 9 10 37 33 11 6 12 11 39 6 21 27 30 25 22
39 37 31 30 29 22 24 26 24 23 21 18 15 40 31 39 32 19 26 29 27 28 30 28 32 40 18 16 13 11 10 8 11 38 11 10 5 19 28 18 34 34 24 20 19
32 34 35 28 25 25 24 17 19 29 39 30 15 21 16 30 39 31 25 22 23 26 25 22 33 23 14 8 10 16 4 6 4 18 8 13 1 19 16 35 42 36 30 27 25
29 28 32 37 22 17 34 52 46 1 5 15 32 15 34 34 40 26 20 16 11 8 11 17 21 11 11 13 2 4 5 5 4 13 12 8 3 12 21 31 33 33 31 28 23
26 24 23 23 26 35 9 7 12 24 69 42 26 20 38 17 38 38 13 10 16 23 13 23 22 11 13 9 7 5 3 7 5 9 9 6 3 8 16 25 27 26 25 23 21
26 23 23 20 25 24 17 36 34 19 23 36 47 39 37 35 23 41 36 18 24 11 12 15 13 13 5 12 15 15 6 10 10 10 9 4 5 3 8 7 12 18 19 18 16
27 27 26 19 15 14 20 20 14 8 10 22 33 37 31 25 27 43 33 15 20 17 17 15 6 10 7 12 10 4 6 3 11 15 2 7 10 10 5 17 15 15 16 14 14
26 28 28 25 10 18 16 12 7 3 11 25 23 23 33 5 13 34 28 9 15 6 7 12 11 7 8 9 4 3 4 4 8 7 4 8 9 11 10 10 8 12 13 12 10
26 27 29 24 17 14 9 7 5 3 13 21 17 21 23 17 10 32 28 21 10 7 5 2 11 11 13 6 4 4 2 6 4 5 6 8 6 10 11 13 15 19 13 8 6
26 24 25 28 23 18 7 2 2 13 3 14 17 23 14 26 16 21 14 16 9 8 15 6 3 5 3 6 6 7 3 7 6 6 5 8 7 10 12 11 9 22 18 11 6
27 26 24 31 26 22 9 1 11 14 6 13 8 12 3 13 16 23 12 17 10 10 12 10 4 5 8 5 2 11 11 8 12 10 9 2 2 19 5 3 13 32 28 18 12
23 23 24 36 33 23 6 10 18 6 10 1 3 4 10 14 8 15 5 9 12 9 7 8 13 8 14 7 2 9 8 9 9 6 11 3 12 10 1 4 13 24 24 22 18
23 19 21 35 36 23 3 13 14 11 2 4 4 10 10 6 2 9 9 2 1 7 9 6 9 1 3 2 3 1 7 4 11 4 6 6 15 6 3 4 12 22 25 26 22
24 14 20 32 27 17 13 4 3 4 6 4 4 4 3 11 10 10 6 1 3 7 3 3 9 2 4 2 7 6 6 7 6 6 12 11 12 13 11 19 16 27 36 28 26
20 7 25 31 16 11 8 9 6 2 3 6 3 3 1 3 4 5 6 2 4 4 6 7 7 8 4 6 11 3 3 7 5 7 9 8 12 12 13 15 24 47 32 25 25
13 5 24 21 8 12 5 9 5 3 2 1 2 4 5 4 3 3 4 10 4 4 2 1 6 8 18 7 7 8 12 12 8 11 8 4 18 3 12 19 27 34 25 23 27
12 10 20 16 7 4 1 2 2 6 4 4 3 1 4 8 5 6 7 8 10 9 10 10 3 7 19 6 5 9 10 7 5 4 14 6 14 1 8 14 26 31 26 26 31
11 7 13 19 16 13 8 2 2 4 3 4 4 5 5 3 2 8 7 6 8 7 6 6 6 15 14 16 6 6 10 11 11 6 6 24 38 32 15 17 34 40 30 26 30
14 6 5 4 10 9 5 10 6 5 6 7 4 9 10 2 3 8 5 4 5 7 7 5 10 4 12 18 7 19 25 16 21 20 16 42 15 40 9 14 23 19 24 25 35
7 3 3 5 3 1 3 10 11 6 11 6 6 5 11 9 13 12 10 8 10 6 10 2 8 3 12 9 10 16 38 22 37 31 18 40 46 35 27 14 10 13 18 32 27
3 2 4 1 3 5 6 8 9 7 10 6 13 8 8 17 28 22 17 10 4 14 13 8 7 6 12 11 16 15 22 26 11 9 13 14 21 3 3 10 16 16 27 31 30
Wind_Direction_850mb
21 15 16 12 12 20 19 21 35 54 103 124 117 47 70 68 75 122 71 41 51 80 91 90 99 115 101 70 50 43 64 86 146 143 204 351 48 49 59 78 58 53 81 103 147
21 18 17 21 26 25 22 31 39 64 80 123 248 30 74 74 69 72 57 55 58 85 95 114 117 113 75 46 33 60 78 136 239 334 346 356 52 11 48 48 65 71 89 102 106
27 23 28 28 28 27 32 44 58 69 71 79 79 17 198 357 48 27 48 56 75 86 104 111 104 92 68 47 21 39 109 162 40 16 4 354 34 43 58 34 38 35 122 92 101
35 35 27 31 34 39 50 55 68 59 61 63 47 48 88 124 65 17 43 46 71 75 104 117 109 65 65 57 28 91 57 70 40 28 29 19 6 55 52 65 31 58 79 87 90
35 35 40 41 47 56 53 62 65 62 51 49 51 68 91 79 29 35 47 51 69 91 94 90 75 76 82 84 61 69 90 64 49 60 35 57 61 55 51 31 61 86 79 89 94
35 39 43 49 53 56 60 70 74 68 57 66 68 78 80 69 32 37 56 63 76 78 71 85 85 90 77 52 58 93 88 66 34 32 32 67 35 77 350 5 102 95 96 97 91
46 44 45 56 53 57 61 56 68 66 67 71 65 69 60 50 42 44 60 67 68 73 76 69 66 93 92 82 84 82 72 44 19 356 33 44 28 4 347 110 127 117 108 100 80
53 51 48 31 37 51 62 68 66 69 62 53 63 59 67 46 46 67 70 70 70 71 76 80 83 77 63 101 38 44 50 39 349 15 359 25 232 338 15 121 123 125 121 113 92
44 49 44 38 36 57 63 65 81 78 66 59 64 59 39 39 52 52 58 65 68 68 67 80 76 59 43 55 26 13 94 17 302 26 294 28 337 346 39 133 129 129 121 104 86
37 41 46 53 53 52 75 71 65 334 48 31 43 75 25 15 32 36 54 62 71 58 58 55 58 64 24 37 154 346 20 329 282 344 14 27 89 355 54 112 107 103 95 88 73
25 24 30 38 35 35 2 324 32 43 60 60 44 69 27 26 41 31 40 47 56 55 38 30 59 26 328 321 332 301 50 328 352 22 355 18 65 358 34 76 84 94 99 89 77
26 16 359 355 7 15 34 72 72 99 66 52 48 47 31 28 34 37 51 60 47 42 349 37 57 338 308 10 47 26 14 348 292 9 26 330 257 1 53 67 103 113 104 94 89
23 18 9 358 11 17 52 77 89 105 75 25 28 24 15 29 41 15 26 42 50 49 27 92 285 335 85 37 62 57 110 294 228 334 37 330 282 194 128 122 110 99 103 101 81
16 18 19 17 16 17 39 54 64 97 74 333 358 21 2 48 53 20 25 55 45 137 82 83 334 19 58 63 28 299 176 270 286 26 259 14 278 230 185 176 173 159 150 135 122
5 10 15 21 22 21 18 13 10 86 52 319 340 346 14 65 336 18 29 59 72 35 93 287 10 13 46 353 28 266 293 242 108 97 32 354 68 266 127 229 211 203 183 152 131
354 360 10 12 12 12 7 30 59 43 310 338 338 355 16 19 15 354 35 65 85 83 46 90 74 68 268 274 226 295 121 53 62 102 26 240 122 254 194 213 176 201 197 192 184
356 355 359 8 4 359 348 122 40 93 344 302 323 5 16 350 356 21 32 16 40 45 9 349 29 8 14 316 223 22 43 349 356 5 230 36 351 253 243 217 204 188 193 200 215
356 351 353 358 357 355 354 48 70 246 237 16 317 323 47 359 20 357 58 35 40 62 83 73 333 15 353 50 346 30 115 141 249 273 282 25 241 264 121 143 162 187 205 219 234
344 347 358 358 354 353 21 49 188 198 75 324 326 59 330 9 117 34 31 73 323 29 116 57 285 226 53 39 87 248 50 138 103 114 36 260 286 254 127 263 205 211 218 232 250
343 337 353 354 356 1 67 149 51 350 2 34 45 63 322 315 13 41 359 267 49 42 31 173 338 251 323 78 45 113 158 37 10 335 302 279 276 247 250 237 230 228 230 242 261
346 341 350 349 360 44 105 200 235 178 21 19 122 65 225 292 352 317 329 32 19 49 61 129 98 292 42 187 181 26 6 45 129 151 205 287 257 212 212 216 216 226 232 253 279
350 353 354 354 27 52 102 187 143 141 87 58 91 110 186 147 324 10 281 201 180 153 23 204 144 258 228 189 190 205 203 173 135 248 231 192 271 172 230 264 224 224 235 269 293
357 346 3 11 92 11 29 15 168 150 188 161 157 156 139 152 37 219 237 211 188 174 177 178 282 348 333 6 5 224 202 158 89 66 208 164 260 240 259 249 227 239 248 285 299
357 12 23 48 69 116 131 259 148 206 202 195 172 160 146 50 213 237 247 227 207 185 178 176 215 193 209 219 122 232 198 196 151 153 206 230 275 280 267 249 256 250 261 287 307
10 55 45 315 13 83 104 150 146 235 201 207 333 232 170 193 296 247 251 302 199 174 166 162 228 241 263 257 200 258 248 196 195 220 209 273 233 271 277 246 283 277 264 297 308
8 338 70 89 87 171 19 214 186 265 157 224 189 179 184 191 208 225 183 207 203 160 169 175 264 96 283 321 299 271 266 214 232 252 261 265 278 280 270 263 250 276 286 308 308
356 297 293 254 128 88 234 182 216 180 209 224 206 159 211 244 263 269 244 256 192 169 186 174 138 54 267 347 321 296 241 201 183 206 165 211 245 251 313 245 271 299 310 309 319